Location: Jaktorów
(52.0850°N, 20.5527°E)
Time: 04:47:38
(UTC+01:00)

ISS - Visible Passes

Search period start: 24 November 2017 00:00
Search period end: 04 December 2017 00:00
Orbit: 402 x 407 km, 51.6° (Epoch: 24 November)

Date Brightness Start Highest point End Pass type
(mag) Time Alt. Az. Time Alt. Az. Time Alt. Az.
28 Nov -1.0 18:17:23 10° SSW 18:17:50 13° SSW 18:17:50 13° SSW visible
29 Nov -1.8 17:25:47 10° S 17:27:45 17° SSE 17:27:45 17° SSE visible
30 Nov -1.3 16:35:03 10° SSE 16:35:51 11° SE 16:36:40 10° ESE visible
30 Nov -1.9 18:08:33 10° SW 18:10:15 25° SSW 18:10:15 25° SSW visible
01 Dec -2.6 17:16:32 10° SSW 17:19:23 28° SSE 17:20:01 26° SE visible
01 Dec -0.5 18:52:18 10° WSW 18:52:40 13° WSW 18:52:40 13° WSW visible
02 Dec -1.9 16:24:44 10° SSW 16:27:10 19° SE 16:29:36 10° E visible
02 Dec -2.8 17:59:58 10° WSW 18:02:23 42° SW 18:02:23 42° SW visible
03 Dec -3.2 17:07:43 10° SW 17:10:51 45° SSE 17:12:04 29° ESE visible
03 Dec -0.8 18:43:55 10° W 18:44:42 16° W 18:44:42 16° W visible
